TimeMST,TemperatureF,Dew PointF,Humidity,Sea Level PressureIn,VisibilityMPH,Wind Direction,Wind SpeedMPH,Gust SpeedMPH,PrecipitationIn,Events,Conditions,WindDirDegrees,DateUTC
12:51 AM,43.0,23.0,45,29.88,10.0,WNW,17.3,23.0,N/A,,Partly Cloudy,290,2012-02-15 07:51:00
1:51 AM,42.1,27.0,55,29.90,10.0,WNW,18.4,24.2,N/A,,Partly Cloudy,290,2012-02-15 08:51:00
2:51 AM,42.1,25.0,51,29.90,10.0,WNW,10.4,20.7,N/A,,Partly Cloudy,290,2012-02-15 09:51:00
3:51 AM,41.0,25.0,53,29.91,10.0,West,16.1,31.1,N/A,,Clear,280,2012-02-15 10:51:00
4:51 AM,42.1,23.0,47,29.91,10.0,WNW,11.5,26.5,N/A,,Clear,290,2012-02-15 11:51:00
5:51 AM,42.1,21.9,45,29.93,10.0,WNW,6.9,-,N/A,,Clear,290,2012-02-15 12:51:00
6:51 AM,41.0,21.9,47,29.97,10.0,West,12.7,-,N/A,,Partly Cloudy,260,2012-02-15 13:51:00
7:51 AM,44.1,21.0,40,30.01,10.0,NNW,8.1,-,N/A,,Partly Cloudy,330,2012-02-15 14:51:00
8:51 AM,46.0,21.0,37,30.04,10.0,Calm,Calm,-,N/A,,Partly Cloudy,0,2012-02-15 15:51:00
9:51 AM,48.0,21.9,36,30.02,10.0,NW,6.9,-,N/A,,Clear,310,2012-02-15 16:51:00
10:51 AM,51.1,23.0,33,30.00,10.0,NW,13.8,-,N/A,,Clear,310,2012-02-15 17:51:00
11:51 AM,53.1,21.9,30,29.97,10.0,WNW,12.7,-,N/A,,Clear,300,2012-02-15 18:51:00
12:51 PM,57.0,18.0,22,29.94,10.0,West,9.2,19.6,N/A,,Clear,260,2012-02-15 19:51:00
1:51 PM,59.0,12.9,16,29.91,10.0,WNW,16.1,20.7,N/A,,Clear,290,2012-02-15 20:51:00
2:51 PM,59.0,14.0,17,29.89,10.0,WSW,10.4,19.6,N/A,,Clear,240,2012-02-15 21:51:00
3:51 PM,60.1,10.9,14,29.88,10.0,NNW,8.1,19.6,N/A,,Clear,330,2012-02-15 22:51:00
4:51 PM,59.0,12.2,16,29.97,10.0,Variable,3.5,-,N/A,,Clear,0,2012-02-15 23:51:00
5:51 PM,57.0,14.0,18,29.89,10.0,North,3.5,-,N/A,,Clear,350,2012-02-16 00:51:00
6:51 PM,51.1,12.9,22,29.92,10.0,ENE,6.9,-,N/A,,Clear,70,2012-02-16 01:51:00
7:51 PM,46.0,10.9,24,29.95,10.0,East,5.8,-,N/A,,Clear,100,2012-02-16 02:51:00
8:51 PM,46.0,12.0,25,29.96,10.0,NE,3.5,-,N/A,,Clear,40,2012-02-16 03:51:00
9:51 PM,44.1,12.0,27,29.98,10.0,Calm,Calm,-,N/A,,Clear,0,2012-02-16 04:51:00
10:51 PM,46.0,14.0,28,29.98,10.0,Calm,Calm,-,N/A,,Clear,0,2012-02-16 05:51:00
11:51 PM,45.0,14.0,29,29.97,10.0,NNE,3.5,-,N/A,,Partly Cloudy,20,2012-02-16 06:51:00